OpenBCM V1.07b12 (Linux)

Packet Radio Mailbox

SR1BSZ

[Szczecin_PL JO73GK]

 Login: GUEST





  
I0OJJ  > KEPS     01.11.25 09:31z 316 Lines 15005 Bytes #14 (0) @ AMSAT
BID : ORB25305.1
Subj: 2Line Orbital Elements 25305.AMSAT
Path: SR1BSZ<EA2RCF<I0OJJ
Sent: 251101/0021z @:I0OJJ.ITA.EU [Rome] obcm1.08-11-2-gbfe9
From: I0OJJ @ I0OJJ.ITA.EU (Gustavo)
To:   KEPS @ AMSAT
X-Info: This message was generated automatically


QST de W1STR

AMSAT Orbital Elements for Amateur Satellites in TLE Format
From Orbital Analysis Office
New England Sci-Tech STEM Education Center
Natick MA November 01, 2025
To all radio amateurs


These element sets describe the orbits of various satellites 
in use by the amateur radio community. For details see:
www.amsat.org/keplerian-elements-formats/

A daily update of element sets is available at:
www.amsat.org/tle/daily-bulletin.txt
or without bulletin text:
www.amsat.org/tle/dailytle.txt


AO-07
1 07530U 74089B   25304.78630191 -.00000021  00000-0  16031-3 0  9990
2 07530 101.9981 310.6091 0012054 206.1100 327.7090 12.53692922331891
UO-11
1 14781U 84021B   25304.68784683  .00001988  00000-0  21221-3 0  9997
2 14781  97.7744 268.3910 0006646 209.7641 150.3199 14.89925841223096
AO-27
1 22825U 93061C   25304.76240785  .00000171  00000-0  82333-4 0  9993
2 22825  98.7203   6.9186 0009264  55.6019 304.6038 14.30853227674339
FO-29
1 24278U 96046B   25304.63020609 -.00000018  00000-0  19963-4 0  9990
2 24278  98.5503 179.4085 0349487 329.4439  28.6745 13.53258682442250
NOAA-15
1 25338U 98030A   25304.83083862  .00000221  00000-0  10818-3 0  9999
2 25338  98.5267 326.4385 0009219 299.9559  60.0706 14.27044875428724
GO-32
1 25397U 98043D   25304.55918316  .00000148  00000-0  84237-4 0  9993
2 25397  98.9882 286.8049 0001971 125.3036 234.8327 14.24358965418781
ISS
1 25544U 98067A   25304.61768088  .00014957  00000-0  27275-3 0  9990
2 25544  51.6344 351.0134 0004897   1.8672 358.2334 15.49657005536323
NO-44
1 26931U 01043C   25304.82548236  .00000287  00000-0  13808-3 0  9991
2 26931  67.0486 114.8671 0007150 272.2806  87.7477 14.31817241257750
SO-50
1 27607U 02058C   25304.84054767  .00002016  00000-0  26057-3 0  9994
2 27607  64.5514 115.0715 0069549 304.3602  55.0937 14.82152405230602
CO-55
1 27844U 03031E   25304.50608314  .00000490  00000-0  23201-3 0  9997
2 27844  98.6782 310.9514 0010504 125.9256 234.2899 14.24125025159121
CO-57
1 27848U 03031J   25303.96014860  .00000432  00000-0  20944-3 0  9994
2 27848  98.6812 310.3081 0010108 143.7516 216.4349 14.23440866158762
RS-22
1 27939U 03042A   25304.87666267  .00001860  00000-0  29923-3 0  9994
2 27939  98.3372 117.9690 0010240 273.2442 224.4656 14.72786075181936
CO-58
1 28895U 05043F   25304.83412999  .00002715  00000-0  44393-3 0  9994
2 28895  98.2695  91.2181 0013928 206.1380 153.9124 14.71636753 68156
CO-65
1 32785U 08021C   25304.86458146  .00008530  00000-0  58418-3 0  9997
2 32785  97.8041 277.3950 0011688  84.5519 275.7041 15.06270412950788
CO-66
1 32791U 08021J   25304.69183598  .00021852  00000-0  92353-3 0  9999
2 32791  97.7421 288.4623 0005693  56.4862 303.6917 15.23241092952397
RS-30
1 32953U 08025A   25304.86171292  .00000041  00000-0  21954-3 0  9996
2 32953  82.4999 137.4725 0019961  89.9388 270.3979 12.43169929791320
NOAA-19
1 33591U 09005A   25304.75842272  .00000097  00000-0  75528-4 0  9993
2 33591  98.9820  10.1640 0013012 319.6445  40.3761 14.13422692862214
SRMSAT
1 37841U 11058D   25304.83455310  .00000498  00000-0  12633-3 0  9990
2 37841  19.9734   1.5670 0011596 211.0586 305.3983 14.11489505725511
ZACUBE-1
1 39417U 13066B   25304.86438575  .00007423  00000-0  61607-3 0  9999
2 39417  97.7972 261.3847 0041381 291.0915  68.5885 14.98409387646506
Delfi-N3xt
1 39428U 13066N   25304.74032242  .00010758  00000-0  10332-2 0  9992
2 39428  97.8304 220.9279 0078542 244.7228 114.5837 14.90908332640531
GOMX-1
1 39430U 13066Q   25304.79126144  .00002790  00000-0  43059-3 0  9995
2 39430  97.6642 154.5403 0132437  90.5079 271.1304 14.68309862636388
LO-74
1 39440U 13066AA  25304.81298111  .00006855  00000-0  66876-3 0  9991
2 39440  97.8639 248.5758 0062449  64.4036 296.3618 14.91282189642924
AO-73
1 39444U 13066AE  25304.84757484  .00011858  00000-0  82725-3 0  9991
2 39444  97.8005 267.6573 0037688 259.0415 100.6570 15.04961476645264
DTUSAT-2
1 40030U 14033W   25304.88965045  .00011699  00000-0  70899-3 0  9999
2 40030  98.0718 284.0409 0006833 301.3257  58.7302 15.10730564618169
EO-80
1 40032U 14033Y   25304.83594021  .00010743  00000-0  65038-3 0  9996
2 40032  98.0597 283.4378 0006372 222.8833 137.1898 15.10792833618135
LILACSAT-2
1 40908U 15049K   25304.86554569  .00018258  00000-0  41546-3 0  9999
2 40908  97.4974 329.0016 0008601  15.2600 344.8905 15.42991758560446
IO-86
1 40931U 15052B   25151.18580175  .00001241  00000-0  78118-4 0  9996
2 40931   6.0006  24.0987 0012733 338.8432  21.1169 14.78805930523159
Horyu-4
1 41340U 16012D   25304.51954438  .00047350  00000-0  93644-3 0  9993
2 41340  30.9947 238.7968 0003800 161.8940 198.1844 15.45837183535002
Lapan A3
1 41603U 16040E   25304.87341642  .00005771  00000-0  19429-3 0  9992
2 41603  97.1432 303.9680 0012679 109.9860 250.2748 15.31067202519852
CAS-2T
1 41847U 16066G   25304.77317431  .00002104  00000-0  30324-3 0  9992
2 41847  98.4081  17.9238 0345511 102.0762 261.9362 14.43976339471823
TechnoSat
1 42829U 17042E   25304.72402389  .00005915  00000-0  44293-3 0  9993
2 42829  97.4045 106.7606 0019367 150.2085 210.0247 15.02925743452363
AO-91
1 43017U 17073E   25304.58143845  .00014985  00000-0  72012-3 0  9997
2 43017  97.5000 171.7652 0165794  35.4486 325.7627 15.07519181430882
S-Net D
1 43186U 18014G   25304.65244128  .00008313  00000-0  46619-3 0  9996
2 43186  97.5479 206.1047 0010927  88.0145 272.2338 15.13578060424159
S-Net B
1 43187U 18014H   25304.72594767  .00008469  00000-0  47506-3 0  9990
2 43187  97.5486 206.1558 0011607  84.0630 276.1924 15.13556069424166
S-Net A
1 43188U 18014J   25304.65231760  .00008370  00000-0  46924-3 0  9998
2 43188  97.5491 206.2531 0011535  84.9233 275.3314 15.13583555424156
S-Net C
1 43189U 18014K   25304.72876569  .00008678  00000-0  48660-3 0  9999
2 43189  97.5510 206.3671 0012925  78.5887 281.6796 15.13549768422715
Ten-Koh
1 43677U 18084G   25304.73057383  .00004021  00000-0  31651-3 0  9994
2 43677  98.0682 122.6870 0009413 145.6830 214.5003 15.01395277381863
PO-101
1 43678U 18084H   25304.80633156  .00003447  00000-0  28855-3 0  9994
2 43678  98.1100 126.5815 0007960 150.8662 209.3006 14.99141969381989
QO-100
1 43700U 18090A   25304.83083778  .00000155  00000-0  00000+0 0  9990
2 43700   0.0188 255.0461 0002031   1.1946 109.0520  1.00270005 25383
MinXSS-2
1 43758U 18099A   25304.72068977  .00029500  00000-0  96347-3 0  9992
2 43758  97.4858  11.5952 0010235  13.8261 346.3258 15.31658241378987
AO-95
1 43770U 18099N   25304.69320130  .00016090  00000-0  73795-3 0  9996
2 43770  97.4743   1.3176 0011385  74.2607 285.9883 15.20464235378428
SNUSat 2
1 43782U 18099AA  25304.66112306  .00011961  00000-0  60422-3 0  9995
2 43782  97.4427 356.8079 0011757  22.3558 337.8186 15.17170794378324
SnugLite
1 43784U 18099AC  25304.69070904  .00016649  00000-0  75649-3 0  9992
2 43784  97.4241 356.7455 0003737  38.0868 322.0631 15.20829178378517
ITASat 1
1 43786U 18099AE  25304.64175328  .00011013  00000-0  58904-3 0  9990
2 43786  97.4392 355.8448 0015104  70.6450 289.6414 15.15133933378257
EAGLET 1
1 43790U 18099AJ  25304.71401700  .00006410  00000-0  39210-3 0  9993
2 43790  97.4589 355.3357 0012934  59.1213 301.1287 15.10501477377817
ESEO
1 43792U 18099AL  25304.81585162  .00002940  00000-0  22110-3 0  9996
2 43792  97.4286 346.7034 0013038  35.8617 324.3482 15.03228781377487
JO-97
1 43803U 18099AX  25304.71494157  .00020328  00000-0  81641-3 0  9995
2 43803  97.4490   2.7126 0006751  12.7413 347.3994 15.24965966378705
Suomi 100
1 43804U 18099AY  25304.72501623  .00016546  00000-0  72997-3 0  9995
2 43804  97.4555   1.5464 0011515  12.5693 347.5827 15.21788918378593
ISAT
1 43879U 18111D   25304.75432260  .00043235  00000-0  11622-2 0  9997
2 43879  97.5876 222.9146 0010416  59.7544 300.4730 15.37721483375785
UWE-4
1 43880U 18111E   25304.72741106  .00029891  00000-0  97644-3 0  9999
2 43880  97.5823 220.1856 0013415  67.0295 293.2360 15.31612693375643
Sparrow
1 43881U 18111F   25304.72972256  .00047014  00000-0  11893-2 0  9990
2 43881  97.6061 226.4051 0009536  84.8807 275.3526 15.39580524375897
Prox-1
1 44339U 19036A   25304.35718823  .00018544  00000-0  21616-2 0  9993
2 44339  23.9954 195.1247 0007125 277.8497  82.1192 14.83605890339366
Taurus 1
1 44530U 19059C   25304.87105545  .00010771  00000-0  18796-2 0  9998
2 44530  98.6212  91.4551 0008717 304.8470  55.1912 14.68134633325091
Duchifat 3
1 44854U 19089C   25304.84328030  .00228009  00000-0  16567-2 0  9992
2 44854  36.9315 146.2560 0009348 332.5549  27.4721 15.71691722325489
TO-108
1 44881U 19093C   25304.81836755  .00001490  00000-0  17644-3 0  9993
2 44881  97.7801  17.3815 0015001 115.6495 244.6272 14.85955665317497
FloripaSat 1
1 44885U 19093G   25304.84154928  .00009399  00000-0  75062-3 0  9999
2 44885  97.8073  32.8554 0011677 100.8017 259.4521 15.00428787318362
RS-44
1 44909U 19096E   25304.64039606  .00000035  00000-0  10154-3 0  9991
2 44909  82.5181 131.5877 0216838 318.9565  39.5391 12.79745045273118
SALSAT
1 46495U 20068K   25304.69096619  .00011895  00000-0  47470-3 0  9993
2 46495  97.8767 289.7351 0011929  31.8092 328.3862 15.25273057280474
CSS (TIANHE-1)
1 48274U 21035A   25304.83160850  .00039822  00000-0  47773-3 0  9996
2 48274  41.4666 271.2443 0006918 300.7556  59.2601 15.60121118257482
TUBIN
1 48900U 21059X   25304.86081831  .00176902  00000-0  85942-3 0  9993
2 48900  97.6707 127.6568 0001589  47.9333 312.2070 15.81956743242659
CUTE
1 49263U 21088D   25304.80331963  .00029482  00000-0  44014-3 0  9991
2 49263  97.4390  25.8826 0006716  72.7001 287.4987 15.54987102226777
